www.pogodaiklimat.ru

Погода и климат >> Архив погоды >> Казахстан >> Балхаш


АРХИВ ПОГОДЫ в Балхаше

Время (UTC), дата Ветер
(напр.,м/с)
 
Видим.   Явления Облачность Т
(С)
Тd
(С)
f
(%)
Тe
(С)
Тes
(С)
Комфортность P
(гПа)
Po
(гПа)
Тmin
(С)
Tmax
(С)
R
(мм)
R24
(мм)
S
(см)
18 10.09 СЗ 3 10 км 1/1 1500 м
[Sc]
+13.0 +4.6 57 +12 +12 по сезону 1022.4 980.9 +17.5 0.0
21 10.09 СВ 2 10 км 3/1
[Sc]
+10.1 +3.8 65 +9 +9 по сезону 1022.8 980.9
00 11.09 С 1 10 км ясно +9.6 +4.2 69 +9 +9 по сезону 1024.2 982.1
03 11.09 С 1 20 км ясно +12.3 +4.7 60 +13 +16 по сезону 1025.0 983.3
06 11.09 Ю 4 10 км 4/3 1000 м
[Cu med, cong Ci fib]
+16.0 +7.5 57 +15 +20 прохладно 1024.8 983.7 +8.1
09 11.09 ЮЗ 5 20 км 9/8 1000 м
[Sc diur, vesp Ci fib]
+18.0 +10.0 59 +18 +18 по сезону 1023.9 983.1
12 11.09 З 5 10 км 9/8 1000 м
[Sc diur, vesp Ci fib]
+18.1 +10.5 61 +18 +18 прохладно 1024.5 983.7
15 11.09 С 1 10 км 9/8 1000 м
[Sc Ci fib]
+17.6 +3.0 38 +19 +19 тепло 1026.1 985.1 +18.8
18 11.09 СВ 4 10 км 8/0
[Ac trans]
+13.5 +3.1 49 +12 +12 по сезону 1027.0 985.4 +18.8
21 11.09 СВ 3 10 км ясно +11.4 +3.6 59 +10 +10 по сезону 1027.4 985.5
00 12.09 СВ 5 10 км 3/0
[Ac trans]
+9.1 +3.6 68 +6 +6 прохладно 1028.5 986.2
03 12.09 СВ 4 20 км ясно +12.7 +4.2 56 +11 +13 прохладно 1028.3 986.5
06 12.09 Ю 4 20 км 3/3 1000 м
[Cu hum]
+17.4 +9.0 58 +17 +22 по сезону 1026.9 985.9 +9.0
09 12.09 ЮЗ 4 20 км 3/3 1000 м
[Cu hum]
+18.3 +8.1 51 +18 +22 по сезону 1025.0 984.2
12 12.09 ЮЗ 3 20 км 1/1 1500 м
[Cu hum]
+18.4 +8.2 51 +19 +20 по сезону 1023.8 983.0
15 12.09 штиль 0 10 км ясно +15.5 +6.3 54 +15 +15 прохладно 1024.1 982.9 +18.9
18 12.09 СВ 2 10 км ясно +12.0 +6.8 70 +11 +11 прохладно 1023.3 981.6 +18.9
21 12.09 СВ 3 10 км ясно +9.5 +4.6 71 +7 +7 прохладно 1022.7 980.7
00 13.09 СВ 2 10 км ясно +8.5 +2.6 66 +7 +7 по сезону 1023.2 981.0
03 13.09 В 2 20 км ясно +12.3 +3.9 56 +12 +15 по сезону 1023.1 981.5
06 13.09 З 3 20 км 1/1 1000 м
[Cu med, cong]
+18.1 +6.3 46 +18 +26 по сезону 1022.2 981.4 +8.1
09 13.09 ЮЗ 6 20 км 3/3 1000 м
[Cu med, cong]
+18.6 +9.4 55 +19 +21 по сезону 1020.8 980.2
12 13.09 ЮЗ 4 20 км ясно +18.7 +10.0 57 +19 +20 по сезону 1020.1 979.5
15 13.09 С 1 10 км ясно +16.6 +10.0 65 +18 +18 по сезону 1021.4 980.5 +19.2
18 13.09 штиль 0 10 км ясно +12.7 +6.3 65 +12 +12 по сезону 1021.4 979.9 +19.2
21 13.09 СВ 4 10 км ясно +11.2 +2.8 56 +9 +9 прохладно 1020.6 978.9
00 14.09 СВ 3 10 км ясно +10.0 +2.0 58 +8 +8 по сезону 1021.0 979.1
03 14.09 СВ 4 20 км ясно +13.6 +1.4 43 +12 +14 по сезону 1021.1 979.7
06 14.09 ЮЗ 3 20 км 1/1 1000 м
[Cu hum]
+20.3 +6.3 40 +21 +29 комфорт 1019.6 979.2 +9.8
09 14.09 ЮЗ 4 20 км ясно +20.3 +10.5 53 +22 +28 комфорт 1018.3 978.0
12 14.09 ЮЗ 3 20 км ясно +20.3 +8.6 47 +22 +23 комфорт 1017.8 977.5
15 14.09 С 1 10 км ясно +16.8 +2.1 37 +18 +18 тепло 1018.9 978.1 +20.8
18 14.09 СВ 4 10 км ясно +13.2 +1.8 46 +12 +12 по сезону 1018.5 977.2 +20.8
21 14.09 СВ 4 10 км 3/0
[Ci sp]
+12.5 +1.7 48 +11 +11 по сезону 1018.0 976.6
00 15.09 СВ 5 10 км 3/3 1000 м
[Sc]
+10.9 +2.1 55 +8 +8 по сезону 1018.7 977.0
03 15.09 СВ 4 20 км 4/0
[Ac trans Ci fib]
+13.8 +2.7 47 +13 +14 по сезону 1018.8 977.5
06 15.09 Ю 3 20 км 9/0
[Ac trans Ci sp]
+21.8 +7.2 39 +23 +29 комфорт 1017.2 977.1 +10.5
09 15.09 Ю 3 20 км 9/8 1000 м
[Sc Ac trans]
+20.1 +11.1 56 +22 +23 комфорт 1016.0 975.8
12 15.09 ЮЗ 1 20 км 9/8 1000 м
[Sc Ac trans]
+20.4 +11.3 56 +23 +23 комфорт 1015.9 975.8
15 15.09 ЮВ 2 10 км 9/8 1000 м
[Sc Ac trans]
+19.4 +5.0 39 +20 +20 тепло 1016.6 976.2 +23.3
18 15.09 В 3 10 км 9/9 1000 м
[Sc]
+18.7 +3.3 36 +19 +19 тепло 1016.4 975.9 +23.3
21 15.09 ЮЗ 1 10 км 10/10 1000 м
[Sc]
+17.0 +12.5 75 +18 +18 тепло 1016.1 975.5
00 16.09 З 5 10 км 10/10 1000 м
[Sc]
+17.5 +5.5 45 +17 +17 тепло 1017.0 976.4
03 16.09 СВ 2 10 км слаб. ливневой дождь 10/10 600 м
[Cb cap]
+13.5 +12.0 91 +13 +13 по сезону 1018.5 977.3
06 16.09 ЮВ 4 20 км {ливн. осадки} 6/0
[Ac As Ci fib]
+17.8 +11.0 64 +18 +22 по сезону 1017.3 976.7 +13.4 1
09 16.09 Ю 5 20 км 4/4 1000 м
[Cu med, cong]
+19.2 +10.8 58 +20 +23 тепло 1015.3 975.0
12 16.09 ЮЗ 6 20 км 8/3 600 м
[Cb calv Ci ing]
+17.9 +9.7 59 +17 +18 прохладно 1015.2 974.7
15 16.09 штиль 0 10 км 3/1 1000 м
[Sc Ci sp]
+16.1 +10.5 69 +16 +16 по сезону 1016.6 975.8 +20.4
18 16.09 СВ 2 10 км ясно +13.3 +10.1 81 +13 +13 по сезону 1017.7 976.5 +20.4 0.0
21 16.09 В 1 10 км 1/0
[Ci sp]
+11.6 +9.4 86 +11 +11 по сезону 1018.2 976.7
00 17.09 СВ 3 10 км ясно +9.9 +8.7 92 +8 +8 по сезону 1019.8 978.0
03 17.09 СВ 3 20 км 3/0
[Ac trans Ci sp]
+12.6 +9.9 84 +11 +13 по сезону 1021.5 980.0
06 17.09 Ю 3 10 км дым 8/0
[Ci sp]
+17.9 +11.8 67 +18 +25 по сезону 1021.8 981.1 +9.7
09 17.09 Ю 3 20 км 8/3 1000 м
[Cu med, cong Ac trans Ci sp]
+19.5 +11.2 59 +21 +24 комфорт 1021.1 980.6
12 17.09 Ю 1 20 км 9/1 1000 м
[Sc diur, vesp Ci fib]
+19.9 +13.3 66 +23 +23 комфорт 1020.7 980.3
15 17.09 ЮВ 1 10 км 3/0
[Ac trans]
+18.0 +13.8 76 +19 +19 тепло 1021.7 981.0 +20.8

 

Местоположение метеостанции Балхаш (Карагандинская область, Казахстан): широта 46.80 долгота 75.08 высота над уровнем моря 350 м.

В архиве по умолчанию представлена погода в Балхаше за последнюю неделю. Архивные данные за месяц целиком и за предыдущие месяцы, начиная с января 2011 года, Вы можете получить, выбрав интересующий диапазон дат из раскрывающегося списка и нажав кнопку "Ввод!".


*Определитесь, кто Вы:
робот инопланетянин человек

Внимание! Время в таблицах - всемирное. Для получения местного времени необходимо прибавить поправку, которая равна 6 ч.

Смотрите также архив погоды в соседних городах и на ближайших метеорологических станциях:

Погода в Бектау-Ате (Карагандинская область, Казахстан) (75 км)
Погода в Куланды (Мангистауская область, Казахстан) (89 км)
Погода в Ауле (Алматинская область, Казахстан) (130 км)
Погода в Моинты (Карагандинская область, Казахстан) (138 км)
Погода на Острове Алгазы (Алматинская область, Казахстан) (139 км)
Погода в Сары-Шагане (Карагандинская область, Казахстан) (146 км)
Погода в Актогае (Восточно-Казахстанская область, Казахстан) (148 км)
Погода в Каракуме (Алматинская область, Казахстан) (161 км)
Погода в Актогае (Карагандинская область, Казахстан) (167 км)
Погода в Куйгане (Алматинская область, Казахстан) (172 км)

Пояснения к столбцам:

Ветер - указаны скорость ветра в м/с - средняя за 10 мин, порывы в срок и между сроками (в фигурных скобках) и направление, откуда дует ветер: С - северный, СВ - северо-восточный, В - восточный, ЮВ - юго-восточный, Ю - южный, ЮЗ - юго-западный, З - западный, СЗ - северо-западный.
Видимость - горизонтальная дальность видимости в метрах или километрах. При видимости от 1 до 10 км при отсутствии осадков обычно наблюдается дымка, при ухудшении видимости до 1 км и менее - туман. В сухую погоду видимость может ухудшаться дымом, пылью или мглою.
Явления - указаны атмосферные явления, наблюдавшиеся в срок или в последний час перед сроком; фигурными скобками обозначены явления, наблюдавшиеся между сроками (за 1-3 часа до срока); квадратными скобками обозначены град или гололедные отложения с указанием их диаметра в мм.
Облачность - указаны через наклонную черту общая и нижняя облачность в баллах и высота нижней границы облаков в метрах; квадратными скобками обозначены формы облаков: Ci - перистые, Cs - перисто-слоистые, Cc - перисто-кучевые, Ac - высококучевые, As - высокослоистые, Sc - слоисто-кучевые, Ns - слоисто-дождевые, Cu - кучевые, Cb - кучево-дождевые. Подробнее классификацию облаков см. в Атласе облаков (PDF).
T - Температура воздуха - температура, измеренная на высоте 2 м над землей.
Td - Температура точки росы - температура, при понижении до которой содержащийся в воздухе водяной пар достигнет насыщения.
f - Относительная влажность воздуха - влажноcть воздуха, измеренная на высоте 2 м над землей.
Te - Эффективная температура - температура, которую ощущает одетый по сезону человек в тени. Характеристика душности погоды. При расчете учитывается влияние влажности воздуха и скорости ветра на теплоощущения человека.
Tes - Эффективная температура на солнце - температура, которую ощущает человек, с поправкой на солнечный нагрев. Характеристика знойности погоды. Зависит от высоты солнца над горизонтом, облачности и скорости ветра. Ночью, в пасмурную погоду, а также при ветре 12 м/с и более поправка равна нулю.
P - Атмосферное давление - приведенное к уровню моря атмосферное давление.
Po - Атмосферное давление - измеренное на уровне метеостанции атмосферное давление.
Tmin - Минимальная температура - минимум температуры воздуха на высоте 2 м над землей.
Tmax - Максимальная температура - максимум температуры воздуха на высоте 2 м над землей.
R - Количество осадков - Количество выпавших осадков за период времени, мм. При наведении курсора мыши на число - период времени, за который выпало указанное количество осадков.
R24 - Количество осадков - Количество выпавших осадков за 24 часа, мм.
S - Снежный покров - Высота снежного покрова, см. При наведении курсора мыши на число - состояние снежного покрова и степень покрытия местности в баллах.